Hourly Data Report for September 20, 2020

GIMLI CLIMATE
MANITOBA
Current Station Operator: ECCC - MSC

50°38'00.000" N
97°03'00.000" W
230.10 m
5031042
71748
PGH

Download Data

Hourly Data (September 2020)
Hourly Data Report for September 20, 2020
TIME Temp Definition
°C
Dew Point Definition
°C
Rel Hum Definition
%
Wind Dir Definition
10's deg

Wind Spd Definition
km/h
Visibility Definition
km
Stn Press Definition
kPa
Hmdx Definition


Wind Chill Definition


Weather Definition


00:00 13.4 8.8 74 14 10   98.73     LegendNANA
01:00 13.1 9.2 77 14 10   98.70     LegendNANA
02:00 12.1 9.3 83 13 7   98.67     LegendNANA
03:00 12.6 10.0 84 13 10   98.58     LegendNANA
04:00 12.8 10.3 85 13 12   98.50     LegendNANA
05:00 12.8 10.5 86 13 11   98.46     LegendNANA
06:00 12.6 10.1 85 14 12   98.44     LegendNANA
07:00 12.8 10.3 85 13 14   98.37     LegendNANA
08:00 13.2 10.3 83 13 20   98.29     LegendNANA
09:00 14.2 10.4 78 14 22   98.25     LegendNANA
10:00 15.0 10.6 75 14 20   98.16     LegendNANA
11:00 16.6 10.8 69 14 22   98.08     LegendNANA
12:00 18.2 11.2 64 14 22   98.01     LegendNANA
13:00 19.5 11.9 61 15 24   97.96     LegendNANA
14:00 20.8 12.0 57 16 27   97.84     LegendNANA
15:00 20.8 12.5 59 15 22   97.82     LegendNANA
16:00 21.2 12.6 58 17 24   97.82     LegendNANA
17:00 20.5 12.9 62 17 24   97.82     LegendNANA
18:00 19.5 13.5 68 15 15   97.75     LegendNANA
19:00 18.7 13.4 71 16 17   97.72     LegendNANA
20:00 18.6 13.4 72 16 18   97.70     LegendNANA
21:00 17.4 13.3 77 14 13   97.64     LegendNANA
22:00 19.2 13.5 70 17 21   97.58     LegendNANA
23:00 18.4 12.6 69 19 23   97.56     LegendNANA

Notes on Data Quality.

Legend

  • E = Estimated
  • M = Missing
  • NA = Not Available*
  • [empty] = Indicates an unobserved value
Date modified: